User: anonymous   Login
Location: Brno
(49.2000°N, 16.6330°E)
Time: 01:29:49
(UTC+01:00)
Language:

Cosmos 2227 - Orbit

View from above orbital plane
View from above orbital plane
View from above satellite
View from above satellite

Ground track
Ground track

The orbit data is extracted from the following two-line orbital elements,

1 22284U 92093A   16042.83731722 -.00000104  00000-0 -30211-4 0  9995
2 22284  70.9791 185.4951 0019295 204.5583 155.4621 14.13260711193226
Epoch (UTC): 11 February 2016 20:05:44
Eccentricity: 0.0019295
inclination: 70.9791°
perigee height: 834 km
apogee height: 862 km
right ascension of ascending node: 185.4951°
argument of perigee: 204.5583°
revolutions per day: 14.13260711
mean anomaly at epoch: 155.4621°
orbit number at epoch: 19322

The dashed part of the orbit path shows where the satellite is in the earth's shadow,  

DLR